User: anonymous
Location: Vancouver
(49.2500°N, 123.1330°W)
Time: 20:41:33
(UTC-07:00)
Language:

SO-67 - Orbit

View from above orbital plane
View from above orbital plane
View from above satellite
View from above satellite

Ground track
Ground track

The orbit data is extracted from the following two-line orbital elements,

1 35870U 09049F   14293.45808134  .00016935  00000-0  49929-3 0  6208
2 35870 097.1543 310.8772 0002879 060.1958 076.9063 15.35073184283255
Epoch (UTC): 20 October 2014 10:59:38
Eccentricity: 0.0002879
inclination: 97.1543°
perigee height: 459 km
apogee height: 462 km
right ascension of ascending node: 310.8772°
argument of perigee: 60.1958°
revolutions per day: 15.35073184
mean anomaly at epoch: 76.9063°
orbit number at epoch: 28325

The dashed part of the orbit path shows where the satellite is in the earth's shadow,  

DLR